Flag for France Weather past 2 weeks in Nancy, France

Now
61 °F

Partly sunny.


Feels Like: 61 °F
Forecast: 42 / 67 °F
Wind: 2 mph from North

Location: Nancy / Ochey

Current Time: Aug 20, 2014 at 1:30:09 PM

Latest Report: Aug 20, 2014 at 1:00 PM


Visibility: N/A

Pressure: 30.04 "Hg

Humidity: 59%

Dew point: 46 °F

Location of NancyLocation

Historic Weather in Nancy — Graph

°F

Nancy temperature yesterday

Maximum temperature yesterday: 64 °F (at 12:30 PM)
Minimum temperature yesterday: 52 °F (at 10:00 PM)
Average temperature yesterday: 58 °F

Past Weeks' High & Low Weather Summary

 TemperatureHumidityPressure
High79 °F (Aug 8, 6:30 PM)100% (Aug 7, 6:00 AM)30.21 "Hg (Aug 7, 6:00 AM)
Low46 °F (Aug 20, 2:00 AM)47% (Aug 5, 5:30 PM)29.65 "Hg (Aug 13, 12:30 PM)
Average62 °F79%29.96 "Hg
* Reported Aug 5 12:00 Noon — Aug 20 12:30 PM, Nancy, Weather by CustomWeather, © 2014

Note: Actual official high and low records may vary slightly from our data, if they occured in-between our weather recording intervals... More about our weather records

Advertising

Nancy weather history for previous 24 hours

 ConditionsComfort  
Time TempWeatherWind HumidityBarometerVisibility
12:30 PM
Aug 20
59 °FBroken clouds.2 mph63%30.07 "HgN/A
12:00 PM57 °FPartly sunny.No wind67%30.07 "HgN/A
11:30 AM55 °FPartly sunny.1 mph77%30.07 "HgN/A
11:00 AM54 °FOvercast.2 mph82%30.07 "HgN/A
10:30 AM54 °FOvercast.2 mph82%30.07 "HgN/A
10:00 AM54 °FPartly sunny.2 mph82%30.07 "HgN/A
9:30 AM54 °FScattered clouds.2 mph82%30.04 "HgN/A
9:00 AM52 °FScattered clouds.No wind88%30.04 "HgN/A
8:30 AM52 °FBroken clouds.No wind88%30.04 "HgN/A
8:00 AM50 °FLight rain. Partly sunny.2 mph94%30.04 "HgN/A
7:30 AM50 °FMostly cloudy.No wind88%30.04 "HgN/A
7:00 AM50 °FClear.2 mph88%30.04 "HgN/A
6:30 AM50 °FOvercast.2 mph88%30.04 "HgN/A
6:00 AM48 °FMostly cloudy.5 mph94%30.04 "HgN/A
5:30 AM50 °FOvercast.2 mph94%30.04 "HgN/A
5:00 AM50 °FClear.5 mph88%30.04 "HgN/A
4:30 AM48 °FClear.5 mph94%30.04 "HgN/A
4:00 AM50 °FClear.5 mph88%30.04 "HgN/A
3:30 AM48 °FClear.5 mph94%30.04 "HgN/A
3:00 AM48 °FClear.3 mph94%30.04 "HgN/A
2:30 AM48 °FClear.3 mph87%30.04 "HgN/A
2:00 AM46 °FClear.2 mph93%30.04 "HgN/A
1:30 AM50 °FClear.3 mph88%30.04 "HgN/A
1:00 AM48 °FClear.3 mph87%30.04 "HgN/A
12:30 AM50 °FClear.3 mph88%30.04 "HgN/A
12:00 AM50 °FClear.2 mph88%30.04 "HgN/A
11:30 PM
Aug 19
52 °FClear.1 mph82%30.04 "HgN/A
10:30 PM52 °FClear.No wind82%30.04 "HgN/A
10:00 PM52 °FClear.No wind82%30.04 "HgN/A
9:30 PM54 °FClear.3 mph82%30.01 "HgN/A
9:00 PM55 °FClear.5 mph77%30.01 "HgN/A
8:30 PM59 °FPassing clouds.7 mph68%29.98 "HgN/A
8:00 PM59 °FClear.5 mph72%29.98 "HgN/A
7:30 PM63 °FClear.10 mph59%29.98 "HgN/A
7:00 PM61 °FPartly sunny.9 mph63%29.98 "HgN/A
6:30 PM61 °FClear.10 mph63%29.98 "HgN/A
6:00 PM63 °FPassing clouds.13 mph59%29.95 "HgN/A
5:30 PM64 °FClear.13 mph64%29.95 "HgN/A
5:00 PM63 °FClear.13 mph64%29.95 "HgN/A
4:30 PM63 °FClear.14 mph64%29.95 "HgN/A
4:00 PM64 °FPassing clouds.16 mph52%29.95 "HgN/A
3:30 PM64 °FClear.13 mph60%29.95 "HgN/A
3:00 PM63 °FClear.13 mph59%29.95 "HgN/A
2:30 PM64 °FScattered clouds.13 mph52%29.95 "HgN/A
2:00 PM64 °FClear.14 mph56%29.95 "HgN/A
1:30 PM63 °FScattered clouds.16 mph59%29.95 "HgN/A
1:00 PM63 °FScattered clouds.14 mph59%29.95 "HgN/A
Weather by CustomWeather, © 2014

See weather overviewHow to use our weather pages